Weather History for Alexandria Esle, LA

Change the Weather History Date:

Saturday, October 1, 2011

  Actual Average Record
Temperature  
Mean Temperature 63 °F -  
Max Temperature 81 °F 83 °F 93 °F (1998)
Min Temperature 46 °F 56 °F 41 °F (1963)
Degree Days  
Heating Degree Days 2    
Growing Degree Days 13 (Base 50)    
Moisture  
Dew Point 47 °F    
Average Humidity 66    
Maximum Humidity 96    
Minimum Humidity 25    
Precipitation  
Precipitation 0.00 in - - ()
Sea Level Pressure  
Sea Level Pressure 30.13 in    
Wind  
Wind Speed 1 mph (ENE)    
Max Wind Speed 9 mph    
Max Gust Speed 20 mph    
Visibility 10 miles    
Events      
Averages and records for this station are not official NWS values.
T = Trace of Precipitation, MM = Missing Value Source: NWS Daily Summary

Daily Weather History Graph

Daily Weather History Graph

Search for Another Location

Airport:

Trip Planner

Search our weather history database for the weather conditions in past years. The results will help you decide how hot, cold, wet, or windy it might be!

Date:

Astronomy

Oct. 01, 2011 Rise Set
Actual Time 7:02 AM CDT 6:54 PM CDT
Civil Twilight 6:38 AM CDT 7:18 PM CDT
Nautical Twilight 6:10 AM CDT 7:46 PM CDT
Astronomical Twilight 5:42 AM CDT 8:15 PM CDT
Moon 11:48 AM CDT (10/1) 10:13 PM CDT (10/1)
Length of Visible Light 12h 40m
Length of Day
11h 51m
Waxing Crescent, 24% of the Moon is Illuminated
Oct 1
Waxing Crescent
Oct 3
First Quarter
Oct 11
Full
Oct 19
Last Quarter
Oct 26
New

Hourly Weather History & Observations

Time (CDT) Temp. Dew Point Humidity Pressure Visibility Wind Dir Wind Speed Gust Speed Precip Events Conditions
12:53 AM 51.1 °F 48.9 °F 92% 30.08 in 10.0 mi Calm Calm - N/A   Partly Cloudy
1:53 AM 50.0 °F 48.0 °F 93% 30.09 in 10.0 mi Calm Calm - N/A   Scattered Clouds
2:53 AM 50.0 °F 48.0 °F 93% 30.09 in 10.0 mi Calm Calm - N/A   Mostly Cloudy
3:53 AM 48.0 °F 46.9 °F 96% 30.09 in 10.0 mi Calm Calm - 0.00 in   Clear
4:53 AM 48.0 °F 46.0 °F 93% 30.10 in 10.0 mi Calm Calm - N/A   Clear
5:53 AM 46.0 °F 45.0 °F 96% 30.11 in 10.0 mi Calm Calm - N/A   Clear
6:53 AM 46.0 °F 45.0 °F 96% 30.12 in 10.0 mi Calm Calm - 0.00 in   Clear
7:53 AM 50.0 °F 48.0 °F 93% 30.15 in 10.0 mi Calm Calm - N/A   Clear
8:53 AM 60.8 °F 50.0 °F 68% 30.18 in 10.0 mi Calm Calm - N/A   Clear
9:53 AM 66.0 °F 48.0 °F 52% 30.19 in 10.0 mi ENE 6.9 mph - N/A   Clear
10:53 AM 71.1 °F 46.0 °F 41% 30.20 in 10.0 mi NE 5.8 mph - N/A   Unknown
11:53 AM 75.0 °F 43.0 °F 32% 30.19 in 10.0 mi East 9.2 mph - N/A   Unknown
12:53 PM 77.0 °F 45.0 °F 32% 30.17 in 10.0 mi Variable 6.9 mph - N/A   Clear
1:53 PM 79.0 °F 45.0 °F 30% 30.14 in 10.0 mi Variable 4.6 mph - N/A   Clear
2:53 PM 78.8 °F 44.6 °F 30% 30.12 in 10.0 mi Variable 3.5 mph - N/A   Scattered Clouds
3:53 PM 80.1 °F 42.1 °F 26% 30.11 in 10.0 mi NE 6.9 mph 19.6 mph N/A   Partly Cloudy
4:53 PM 80.1 °F 41.0 °F 25% 30.10 in 10.0 mi NE 4.6 mph - N/A   Clear
5:53 PM 78.1 °F 42.1 °F 28% 30.10 in 10.0 mi Calm Calm - N/A   Clear
6:53 PM 66.9 °F 53.1 °F 61% 30.11 in 10.0 mi Calm Calm - N/A   Partly Cloudy
7:53 PM 61.0 °F 52.0 °F 72% 30.12 in 10.0 mi Calm Calm - N/A   Clear
8:53 PM 57.9 °F 50.0 °F 75% 30.14 in 10.0 mi Calm Calm - N/A   Partly Cloudy
9:53 PM 54.0 °F 51.1 °F 90% 30.16 in 10.0 mi Calm Calm - N/A   Partly Cloudy
10:53 PM 53.1 °F 50.0 °F 89% 30.16 in 10.0 mi Calm Calm - N/A   Mostly Cloudy
11:53 PM 52.0 °F 48.0 °F 86% 30.17 in 10.0 mi ENE 3.5 mph - N/A   Clear